Raleigh, IL

5:32 AM CDT on September 27, 2016 (GMT -0500)
Harrisburg-Raleigh

Weather History for KHSB - September, 2013

Change the Weather History Date:

Wednesday, September 25, 2013

  Actual Average (KMWA) Record (KMWA)
Temperature  
Mean Temperature 70 °F -  
Max Temperature 82 °F 72 °F 91 °F (1999)
Min Temperature 59 °F 50 °F 35 °F (1983)
Cooling Degree Days 6    
Growing Degree Days 20 (Base 50)    
Moisture  
Dew Point 64 °F    
Average Humidity 86    
Maximum Humidity 100    
Minimum Humidity 48    
Precipitation  
Precipitation 0.00 in - - ()
Sea Level Pressure  
Sea Level Pressure 29.86 in    
Wind  
Wind Speed 2 mph (East)    
Max Wind Speed 8 mph    
Max Gust Speed -    
Visibility 6 miles    
Events Fog    
Averages and records for this station are not official NWS values.
T = Trace of Precipitation, MM = Missing Value Source: NWS Daily Summary

Daily Weather History Graph

Daily Weather History Graph

Search for Another Location

Airport or City:

Trip Planner

Search our weather history database for the weather conditions in past years. The results will help you decide how hot, cold, wet, or windy it might be!

Date:

Astronomy

Sep. 25, 2013 Rise Set
Actual Time 6:44 AM CDT 6:46 PM CDT
Civil Twilight 6:18 AM CDT 7:12 PM CDT
Nautical Twilight 5:48 AM CDT 7:42 PM CDT
Astronomical Twilight 5:17 AM CDT 8:13 PM CDT
Moon 10:57 PM CDT (9/25) 12:44 PM CDT (9/25)
Length of Visible Light 12h 53m
Length of Day
12h 01m
Waning Gibbous, 64% of the Moon is Illuminated
Sep 25
Waning Gibbous
Sep 26
Last Quarter
Oct 4
New
Oct 11
First Quarter
Oct 18
Full

Hourly Weather History & Observations

Time (CDT) Temp. Heat Index Dew Point Humidity Pressure Visibility Wind Dir Wind Speed Gust Speed Precip Events Conditions
12:15 AM 66.7 °F - 66.6 °F 99% 29.84 in 10.0 mi SE 3.5 mph - N/A   Overcast
12:35 AM 66.6 °F - 66.4 °F 99% 29.84 in 10.0 mi Calm Calm - N/A   Mostly Cloudy
12:55 AM 65.5 °F - 65.5 °F 100% 29.84 in 7.0 mi NNW 3.5 mph - N/A   Mostly Cloudy
1:15 AM 65.5 °F - 65.5 °F 100% 29.84 in 7.0 mi NNE 3.5 mph - N/A   Scattered Clouds
1:35 AM 64.9 °F - 64.9 °F 100% 29.84 in 5.0 mi Calm Calm - N/A   Clear
1:55 AM 64.9 °F - 64.9 °F 100% 29.84 in 5.0 mi Calm Calm - N/A   Clear
2:15 AM 64.8 °F - 64.8 °F 100% 29.84 in 7.0 mi Calm Calm - N/A   Scattered Clouds
2:35 AM 64.9 °F - 64.9 °F 100% 29.84 in 7.0 mi Calm Calm - N/A   Scattered Clouds
2:55 AM 64.8 °F - 64.8 °F 100% 29.84 in 7.0 mi Calm Calm - N/A   Mostly Cloudy
3:15 AM 64.9 °F - 64.9 °F 100% 29.84 in 7.0 mi Calm Calm - N/A   Overcast
3:35 AM 64.8 °F - 64.8 °F 100% 29.83 in 5.0 mi Calm Calm - N/A   Mostly Cloudy
3:55 AM 63.5 °F - 63.5 °F 100% 29.83 in 2.0 mi Calm Calm - N/A   Scattered Clouds
4:15 AM 61.7 °F - 61.7 °F 100% 29.83 in 0.5 mi Calm Calm - N/A Fog Fog
4:35 AM 63.0 °F - 63.0 °F 100% 29.83 in 2.5 mi Calm Calm - N/A   Overcast
4:55 AM 62.6 °F - 62.6 °F 100% 29.83 in 1.8 mi Calm Calm - N/A   Mostly Cloudy
5:15 AM 62.2 °F - 62.2 °F 100% 29.84 in 0.8 mi Calm Calm - N/A   Mostly Cloudy
5:35 AM 61.7 °F - 61.7 °F 100% 29.84 in 0.5 mi Calm Calm - N/A Fog Fog
5:55 AM 59.5 °F - 59.5 °F 100% 29.84 in 0.2 mi Calm Calm - N/A Fog Fog
6:15 AM 60.6 °F - 60.6 °F 100% 29.85 in 0.5 mi Calm Calm - N/A Fog Fog
6:35 AM 60.3 °F - 60.3 °F 100% 29.85 in 0.2 mi ENE 3.5 mph - N/A Fog Fog
6:55 AM 61.3 °F - 61.3 °F 100% 29.85 in 1.0 mi Calm Calm - N/A   Mist
7:15 AM 62.6 °F - 62.6 °F 100% 29.86 in 2.5 mi Calm Calm - N/A   Mostly Cloudy
7:35 AM 63.1 °F - 63.1 °F 100% 29.87 in 2.0 mi Calm Calm - N/A   Overcast
7:55 AM 64.4 °F - 64.4 °F 100% 29.87 in 0.2 mi East 3.5 mph - N/A Fog Fog
8:15 AM 65.1 °F - 65.1 °F 100% 29.86 in 0.2 mi ESE 5.8 mph - N/A Fog Fog
8:35 AM 65.1 °F - 65.1 °F 100% 29.87 in 0.5 mi ESE 3.5 mph - N/A Fog Fog
8:55 AM 65.5 °F - 65.5 °F 100% 29.87 in 0.5 mi ESE 5.8 mph - N/A Fog Fog
9:15 AM 65.7 °F - 65.7 °F 100% 29.87 in 1.0 mi ESE 5.8 mph - N/A   Overcast
9:35 AM 66.4 °F - 66.4 °F 100% 29.88 in 4.0 mi East 4.6 mph - N/A   Overcast
9:55 AM 66.9 °F - 66.9 °F 100% 29.88 in 5.0 mi ENE 5.8 mph - N/A   Overcast
10:15 AM 67.6 °F - 67.6 °F 100% 29.89 in 5.0 mi East 3.5 mph - N/A   Overcast
10:35 AM 68.2 °F - 68.2 °F 100% 29.89 in 5.0 mi ENE 4.6 mph - N/A   Overcast
10:55 AM 68.9 °F - 68.0 °F 97% 29.89 in 7.0 mi ENE 6.9 mph - N/A   Overcast
11:15 AM 70.5 °F - 68.2 °F 92% 29.89 in 7.0 mi Calm Calm - N/A   Overcast
11:35 AM 72.1 °F - 68.2 °F 87% 29.88 in 10.0 mi East 6.9 mph - N/A   Scattered Clouds
11:55 AM 74.8 °F - 67.3 °F 77% 29.88 in 10.0 mi ESE 8.1 mph - N/A   Clear
12:15 PM 76.1 °F - 66.4 °F 72% 29.87 in 10.0 mi East 8.1 mph - N/A   Clear
12:35 PM 77.4 °F - 65.3 °F 66% 29.87 in 10.0 mi ESE 5.8 mph - N/A   Clear
12:55 PM 77.9 °F - 64.0 °F 62% 29.87 in 10.0 mi East 5.8 mph - N/A   Scattered Clouds
1:15 PM 79.0 °F - 63.5 °F 59% 29.86 in 10.0 mi ESE 5.8 mph - N/A   Scattered Clouds
1:35 PM 79.0 °F - 63.7 °F 59% 29.86 in 10.0 mi ESE 8.1 mph - N/A   Scattered Clouds
1:55 PM 77.9 °F - 63.1 °F 60% 29.85 in 10.0 mi ESE 5.8 mph - N/A   Scattered Clouds
2:15 PM 79.9 °F - 62.2 °F 55% 29.84 in 10.0 mi SE 5.8 mph - N/A   Scattered Clouds
2:35 PM 81.1 °F 82.3 °F 62.4 °F 53% 29.84 in 10.0 mi SE 5.8 mph - N/A   Scattered Clouds
2:55 PM 82.0 °F 82.5 °F 60.8 °F 48% 29.84 in 10.0 mi SE 8.1 mph - N/A   Scattered Clouds
3:15 PM 81.7 °F 82.2 °F 60.3 °F 48% 29.84 in 10.0 mi Calm Calm - N/A   Scattered Clouds
3:35 PM 81.3 °F 81.8 °F 60.1 °F 48% 29.84 in 10.0 mi East 4.6 mph - N/A   Mostly Cloudy
3:55 PM 82.0 °F 82.5 °F 60.4 °F 48% 29.83 in 10.0 mi ESE 3.5 mph - N/A   Scattered Clouds
4:15 PM 81.1 °F 81.6 °F 59.7 °F 48% 29.84 in 10.0 mi East 6.9 mph - N/A   Mostly Cloudy
4:35 PM 80.6 °F 81.2 °F 59.9 °F 49% 29.84 in 10.0 mi Calm Calm - N/A   Mostly Cloudy
4:55 PM 79.0 °F - 61.7 °F 55% 29.84 in 10.0 mi NE 3.5 mph - N/A   Scattered Clouds
5:35 PM 81.3 °F 82.1 °F 60.8 °F 50% 29.84 in 10.0 mi Calm Calm - N/A   Mostly Cloudy
5:55 PM 79.7 °F - 61.2 °F 53% 29.85 in 10.0 mi East 4.6 mph - N/A   Scattered Clouds
6:15 PM 77.5 °F - 61.9 °F 58% 29.85 in 10.0 mi East 3.5 mph - N/A   Mostly Cloudy
6:35 PM 75.2 °F - 62.6 °F 65% 29.86 in 5.0 mi East 3.5 mph - N/A   Haze
6:55 PM 74.3 °F - 63.3 °F 68% 29.86 in 7.0 mi Calm Calm - N/A   Scattered Clouds
7:15 PM 70.5 °F - 64.4 °F 81% 29.86 in 10.0 mi Calm Calm - N/A   Scattered Clouds
7:35 PM 70.3 °F - 64.4 °F 81% 29.86 in 10.0 mi Calm Calm - N/A   Scattered Clouds
7:55 PM 68.5 °F - 64.0 °F 85% 29.87 in 10.0 mi Calm Calm - N/A   Clear
8:15 PM 68.5 °F - 64.2 °F 86% 29.87 in 7.0 mi Calm Calm - N/A   Clear
8:35 PM 66.0 °F - 64.0 °F 93% 29.88 in 10.0 mi Calm Calm - N/A   Clear
8:55 PM 65.7 °F - 63.7 °F 93% 29.88 in 7.0 mi Calm Calm - N/A   Clear
9:15 PM 64.9 °F - 63.7 °F 96% 29.88 in 7.0 mi Calm Calm - N/A   Clear
9:35 PM 64.2 °F - 63.1 °F 96% 29.89 in 7.0 mi Calm Calm - N/A   Clear
9:55 PM 65.3 °F - 64.0 °F 96% 29.89 in 7.0 mi NE 3.5 mph - N/A   Clear
10:15 PM 64.6 °F - 63.7 °F 97% 29.89 in 7.0 mi Calm Calm - N/A   Clear
10:35 PM 63.0 °F - 62.1 °F 97% 29.89 in 7.0 mi Calm Calm - N/A   Clear
10:55 PM 63.0 °F - 62.6 °F 99% 29.90 in 7.0 mi Calm Calm - N/A   Clear
11:15 PM 63.1 °F - 62.8 °F 99% 29.90 in 7.0 mi Calm Calm - N/A   Clear
11:35 PM 62.1 °F - 61.9 °F 99% 29.90 in 7.0 mi Calm Calm - N/A   Clear
11:55 PM 61.9 °F - 61.9 °F 100% 29.90 in 7.0 mi Calm Calm - N/A   Clear